Location: Gamarra
(10.0780°N, 67.4929°W)
Time: 08:23:14
(UTC+00:00)

Meteor PRIRODA - Pass Details

Date: 13 April 2024
Orbit: 442 x 457 km, 97.5° (Epoch: 23 May)

Event Time Altitude Azimuth Distance (km) Brightness Sun altitude
Rises 13:15:56 0° 303° (WNW) 2,478 6.8 42.1°
Enters shadow 13:48:35 -57° 179° (S) 11,205 10.0 50.1°
Exits shadow 14:06:23 -73° 88° (E) 12,656 10.3 54.5°
Reaches altitude 10° 23:30:03 10° 158° (SSE) 1,569 5.8 -12.8°
Maximum altitude 23:33:22 57° 78° (ENE) 531 3.4 -13.6°
Drops below altitude 10° 23:36:41 10° 359° (N) 1,580 6.3 -14.4°
Sets 23:38:45 0° 355° (N) 2,456 7.4 -14.9°
